www.pogodaiklimat.ru

Погода и климат >> Архив погоды >> Норвегия >> Сауда


ПОГОДА в Сауде

  • Прогноз погоды в Сауде
  • Монитор погоды в Сауде

АРХИВ ПОГОДЫ в Сауде

Время (UTC), дата Ветер
(напр.,м/с)
 
Видим.   Явления Облачность Т
(С)
Тd
(С)
f
(%)
Тe
(С)
Тes
(С)
Комфортность P
(гПа)
Po
(гПа)
Тmin
(С)
Tmax
(С)
R
(мм)
R24
(мм)
S
(см)
04 12.06 н/о н/о +16.2 +5.8 50 1019.6 1019.3
05 12.06 н/о н/о +14.7 +6.8 59 1019.5 1019.2 0.2
06 12.06 30 км {дождь} 10/10 1000 м
[Sc]
+15.7 +5.3 50 1018.9 1018.6 +14.7 +21.0 0.5
07 12.06 н/о н/о +16.5 +4.2 44 1019.0 1018.7
08 12.06 н/о н/о +16.7 +4.4 44 1018.9 1018.6
09 12.06 н/о н/о +16.8 +5.5 47 1019.0 1018.7
10 12.06 н/о н/о +16.5 +7.7 56 1018.3 1018.0
11 12.06 н/о н/о +15.5 +9.0 65 1017.7 1017.4
12 12.06 30 км 8/8 1500 м
[Sc]
+15.7 +9.2 65 1016.7 1016.4
13 12.06 н/о н/о +16.8 +9.0 60 1016.5 1016.2
14 12.06 н/о н/о +18.4 +7.5 49 1016.1 1015.8
15 12.06 н/о н/о +18.1 +7.2 49 1015.8 1015.5
16 12.06 н/о н/о +18.1 +6.6 47 1015.3 1015.0
17 12.06 н/о н/о +18.2 +7.0 48 1014.5 1014.2
18 12.06 55 км слаб. дождь 10/5 1500 м
[Frnb As trans]
+16.4 +7.9 57 1013.5 1013.2 +15.0 +18.7 0.1
19 12.06 н/о н/о +16.1 +7.1 55 1013.4 1013.1 0.1
20 12.06 н/о н/о +15.8 +6.3 53 1013.0 1012.7
21 12.06 н/о н/о +15.4 +6.9 57 1012.6 1012.3
22 12.06 н/о н/о +14.8 +7.6 62 1012.0 1011.7
23 12.06 н/о н/о +13.9 +9.6 75 1011.1 1010.8
00 13.06 н/о н/о +13.3 +9.6 78 1009.2 1008.9
01 13.06 н/о н/о +12.9 +9.5 80 1007.7 1007.4
02 13.06 н/о н/о +13.2 +9.1 76 1006.7 1006.4
03 13.06 30 км 10/10 1500 м
[Sc]
+12.6 +10.2 85 1006.1 1005.8
04 13.06 н/о н/о +12.5 +10.4 87 1006.0 1005.7 0.5
05 13.06 н/о н/о +12.0 +10.7 92 1006.1 1005.8 2
06 13.06 5000 м слаб. дождь 10/5 200 м
[Frnb As op]
+12.2 +11.1 93 1006.6 1006.3 +11.9 +16.7 4
07 13.06 н/о н/о +12.4 +11.1 92 1006.7 1006.4 0.3
08 13.06 н/о н/о +12.8 +11.0 89 1006.2 1005.9
09 13.06 н/о н/о +13.2 +11.4 89 1006.1 1005.8
10 13.06 н/о н/о +13.0 +11.1 88 1006.1 1005.8
11 13.06 н/о н/о +14.3 +11.1 81 1006.3 1006.0
12 13.06 30 км {дождь} 8/8 1000 м
[Sc]
+17.3 +9.0 58 1006.6 1006.3
13 13.06 н/о н/о +18.8 +9.3 54 1007.1 1006.8
14 13.06 н/о н/о +16.8 +10.9 68 1007.7 1007.4
15 13.06 н/о н/о +17.4 +9.8 61 1008.5 1008.2
16 13.06 н/о н/о +18.0 +6.5 47 1008.8 1008.5
17 13.06 н/о н/о +17.7 +7.2 50 1009.3 1009.0
18 13.06 >70 км 6/6 1500 м
[Cu med, cong]
+18.4 +6.0 44 1009.5 1009.2 +12.2 +19.4
19 13.06 н/о н/о +17.6 +6.8 49 1010.1 1009.8 0.1
20 13.06 н/о н/о +17.8 +4.4 41 1010.7 1010.4
21 13.06 н/о н/о +16.5 +5.5 48 1012.2 1011.9
22 13.06 н/о н/о +17.2 +4.9 44 1012.4 1012.1
23 13.06 н/о н/о +16.7 +6.0 49 1012.7 1012.4
00 14.06 н/о н/о +16.2 +6.1 51 1013.0 1012.7
01 14.06 н/о н/о +16.3 +5.3 48 1013.1 1012.8
02 14.06 н/о н/о +15.9 +5.2 49 1013.2 1012.9
03 14.06 55 км 9/6 1500 м
[Sc Ci fib]
+15.7 +5.0 49 1013.6 1013.3
04 14.06 н/о н/о +16.1 +5.1 48 1013.4 1013.1
05 14.06 н/о н/о +15.1 +7.2 59 1014.2 1013.9 0.1
06 14.06 20 км слаб. дождь 9/9 1000 м
[Frnb Ci fib]
+13.9 +9.9 77 1014.1 1013.8 +13.2 +18.6 0.3
07 14.06 н/о н/о +15.5 +10.7 73 1014.1 1013.8
08 14.06 н/о н/о +19.5 +6.3 42 1013.9 1013.6
09 14.06 н/о н/о +20.1 +6.8 42 1014.2 1013.9
10 14.06 н/о н/о +19.5 +7.0 44 1014.6 1014.3
11 14.06 н/о н/о +19.1 +7.5 47 1014.9 1014.6
12 14.06 55 км 9/9 1500 м
[Sc diur, vesp]
+20.4 +7.1 42 1015.0 1014.7
13 14.06 н/о н/о +19.9 +7.0 43 1015.1 1014.8
14 14.06 н/о н/о +19.0 +7.5 47 1015.5 1015.2
15 14.06 н/о н/о +19.6 +7.0 44 1015.5 1015.2 0.2
16 14.06 н/о н/о +19.7 +6.5 42 1015.5 1015.2
17 14.06 н/о н/о +18.1 +8.1 52 1016.0 1015.7
18 14.06 >70 км 6/5 1500 м
[Cu Sc Ci fib]
+18.3 +7.4 49 1016.3 1016.0 +13.9 +21.1
19 14.06 н/о н/о +18.3 +5.9 44 1016.5 1016.2
20 14.06 н/о н/о +15.6 +8.4 62 1016.9 1016.6
21 14.06 н/о н/о +14.8 +8.3 65 1017.6 1017.3
22 14.06 н/о н/о +12.9 +8.4 74 1018.3 1018.0
23 14.06 н/о н/о +12.3 +7.2 71 1018.5 1018.2
00 15.06 н/о н/о +11.0 +7.1 77 1018.8 1018.5
01 15.06 н/о н/о +10.2 +6.9 80 1018.9 1018.6
02 15.06 н/о н/о +9.3 +6.6 83 1019.0 1018.7
03 15.06 >70 км 1/0
[Ci fib]
+10.2 +7.1 81 1018.7 1018.4
04 15.06 н/о н/о +11.2 +7.7 79 1018.2 1017.9
05 15.06 н/о н/о +13.3 +7.5 68 1018.1 1017.8
06 15.06 >70 км ясно +13.3 +7.7 69 1017.7 1017.4 +9.3 +18.6
07 15.06 н/о н/о +14.4 +7.2 62 1017.5 1017.2
08 15.06 н/о н/о +16.2 +7.4 56 1017.1 1016.8
09 15.06 н/о н/о +18.0 +8.6 54 1016.4 1016.1
10 15.06 н/о н/о +20.5 +8.5 46 1015.9 1015.6
11 15.06 н/о н/о +22.3 +8.4 41 1014.7 1014.4
12 15.06 >70 км 1/1 1500 м
[Cu hum]
+25.7 +7.8 32 1014.0 1013.7
13 15.06 н/о н/о +26.0 +6.6 29 1013.4 1013.1
14 15.06 н/о н/о +26.4 +6.5 28 1012.9 1012.6
15 15.06 н/о н/о +25.3 +9.2 36 1012.4 1012.1
16 15.06 н/о н/о +25.6 +7.7 32 1011.5 1011.2
17 15.06 н/о н/о +24.0 +9.2 39 1011.7 1011.4
18 15.06 30 км слаб. дождь 10/6 1500 м
[Frnb As op]
+18.6 +13.7 73 1013.1 1012.8 +12.9 +26.8 0.3
19 15.06 н/о н/о +17.2 +15.2 88 1013.3 1013.0 1
20 15.06 н/о н/о +16.8 +15.0 89 1013.2 1012.9 0.4
21 15.06 н/о н/о +16.3 +14.8 91 1013.0 1012.7 0.4
22 15.06 н/о н/о +16.1 +14.8 92 1012.8 1012.5 0.7
23 15.06 н/о н/о +15.8 +14.5 92 1012.4 1012.1 0.1
00 16.06 н/о н/о +15.5 +14.2 92 1011.9 1011.6 0.3
01 16.06 н/о н/о +15.2 +14.1 93 1011.1 1010.8 0.5
02 16.06 н/о н/о +15.1 +14.1 94 1011.6 1011.3 0.7
03 16.06 25 км слаб. дождь 10/5 1500 м
[Frnb As op]
+14.9 +13.8 93 1011.5 1011.2 1
04 16.06 н/о н/о +14.7 +13.4 92 1011.4 1011.1 0.2
05 16.06 н/о н/о +14.5 +13.6 94 1012.1 1011.8 2
06 16.06 10 км слаб. дождь 10/10 1000 м
[St]
+14.6 +13.6 94 1012.5 1012.2 +14.5 +18.6 8
07 16.06 н/о н/о +14.7 +13.6 93 1012.7 1012.4
08 16.06 н/о н/о +14.8 +13.7 93 1013.1 1012.8
09 16.06 н/о н/о +14.6 +13.2 91 1013.6 1013.3
10 16.06 н/о н/о +14.5 +12.9 90 1014.0 1013.7
11 16.06 н/о н/о +15.6 +13.1 85 1014.1 1013.8
12 16.06 20 км 10/5 600 м
[St Ac inh Ci sp]
+16.1 +11.9 76 1014.4 1014.1
13 16.06 н/о н/о +20.3 +9.9 51 1014.2 1013.9
14 16.06 н/о н/о +20.2 +7.9 45 1014.0 1013.7
15 16.06 н/о н/о +18.9 +9.4 54 1014.0 1013.7
16 16.06 н/о н/о +16.7 +11.0 69 1014.5 1014.2
17 16.06 н/о н/о +16.7 +9.2 61 1015.1 1014.8
18 16.06 30 км слаб. морось 10/5 1000 м
[Frnb As op]
+15.5 +10.3 71 1015.7 1015.4 +14.4 +20.8
19 16.06 н/о н/о +14.6 +11.2 80 1015.8 1015.5
20 16.06 н/о н/о +14.4 +10.6 78 1016.3 1016.0
21 16.06 н/о н/о +14.0 +9.5 74 1016.6 1016.3
22 16.06 н/о н/о +12.1 +9.0 81 1016.8 1016.5
23 16.06 н/о н/о +11.1 +8.7 85 1017.1 1016.8
00 17.06 н/о н/о +10.5 +8.6 88 1017.1 1016.8
01 17.06 н/о н/о +10.1 +8.2 88 1017.1 1016.8
02 17.06 н/о н/о +9.3 +7.6 89 1017.0 1016.7
03 17.06 >70 км 1/0
[Ci sp]
+9.0 +7.5 90 1016.7 1016.4
04 17.06 н/о н/о +10.0 +7.8 86 1016.4 1016.1
05 17.06 н/о н/о +12.1 +8.2 77 1016.1 1015.8
06 17.06 >70 км 9/9 1500 м
[Sc]
+11.9 +8.2 78 1015.8 1015.5 +8.9 +15.5
07 17.06 н/о н/о +13.6 +8.5 71 1015.4 1015.1
08 17.06 н/о н/о +14.1 +8.7 70 1015.1 1014.8
09 17.06 н/о н/о +16.5 +8.7 60 1014.4 1014.1
10 17.06 н/о н/о +15.9 +8.9 63 1014.1 1013.8
11 17.06 н/о н/о +15.9 +8.4 61 1013.9 1013.6
12 17.06 10 км слаб. дождь 10/10 200 м
[Frnb]
+14.6 +10.4 76 1014.4 1014.1 0.5
13 17.06 н/о н/о +14.4 +12.1 86 1014.6 1014.3 0.6
14 17.06 н/о н/о +15.1 +12.6 85 1014.4 1014.1 0.5
15 17.06 н/о н/о +15.1 +12.4 84 1014.4 1014.1 0.3
16 17.06 н/о н/о +14.2 +12.6 90 1014.5 1014.2 0.7
17 17.06 н/о н/о +14.1 +12.0 87 1014.2 1013.9 0.9
18 17.06 4000 м слаб. дождь 10/10 200 м
[Frnb]
+13.6 +12.2 91 1014.3 1014.0 +11.9 +17.3 4
19 17.06 н/о н/о +13.7 +11.8 88 1014.3 1014.0 0.3
20 17.06 н/о н/о +13.9 +11.3 84 1014.4 1014.1 0.4
21 17.06 н/о н/о +13.5 +11.7 89 1014.6 1014.3 0.3
22 17.06 н/о н/о +13.3 +11.4 88 1014.7 1014.4 0.1
23 17.06 н/о н/о +12.8 +11.4 91 1014.1 1013.8 1
00 18.06 н/о н/о +12.3 +11.0 92 1013.8 1013.5 2
01 18.06 н/о н/о +12.3 +11.0 92 1013.7 1013.4 0.2
02 18.06 н/о н/о +12.5 +11.1 91 1013.6 1013.3
03 18.06 5000 м дождь 10/10 200 м
[Frnb]
+12.6 +11.3 92 1013.1 1012.8
04 18.06 н/о н/о +12.7 +11.4 92 1012.8 1012.5 0.4
05 18.06 н/о н/о +12.7 +11.6 93 1013.5 1013.2 3
06 18.06 10 км дождь 10/10 300 м
[Frnb]
+12.3 +10.2 87 1013.3 1013.0 +12.2 +14.0 10
07 18.06 н/о н/о +12.8 +10.5 86 1013.4 1013.1 0.1
08 18.06 н/о н/о +13.4 +10.2 81 1013.2 1012.9
09 18.06 н/о н/о +14.1 +10.3 78 1012.9 1012.6
10 18.06 н/о н/о +15.4 +10.2 71 1012.7 1012.4
11 18.06 н/о н/о +16.3 +9.3 63 1012.2 1011.9
12 18.06 30 км {дождь} 9/9 1000 м
[Sc]
+17.5 +9.2 58 1012.0 1011.7
13 18.06 н/о н/о +17.9 +8.5 54 1011.7 1011.4
14 18.06 н/о н/о +18.4 +9.5 56 1011.5 1011.2
15 18.06 н/о н/о +18.7 +7.8 49 1011.2 1010.9
16 18.06 н/о н/о +17.8 +8.4 54 1010.9 1010.6
17 18.06 н/о н/о +17.6 +8.7 56 1011.0 1010.7
18 18.06 55 км 3/3 1500 м
[Sc diur, vesp]
+17.1 +8.3 56 1011.2 1010.9 +12.3 +18.9
19 18.06 н/о н/о +16.3 +7.5 56 1011.4 1011.1
20 18.06 н/о н/о +15.1 +7.7 61 1012.0 1011.7
21 18.06 н/о н/о +13.9 +9.6 75 1012.2 1011.9
22 18.06 н/о н/о +12.3 +9.0 80 1012.5 1012.2
23 18.06 н/о н/о +11.6 +9.0 84 1012.6 1012.3
00 19.06 н/о н/о +11.3 +8.9 85 1012.5 1012.2
01 19.06 н/о н/о +11.1 +8.9 86 1012.5 1012.2
02 19.06 н/о н/о +10.1 +8.0 87 1012.5 1012.2
03 19.06 30 км 9/5 1500 м
[St Ac und]
+10.2 +8.0 86 1012.2 1011.9

 

Местоположение метеостанции Сауда (Норвегия): широта 59.65 долгота 6.35 высота над уровнем моря 5 м.

В архиве по умолчанию представлена погода в Сауде за последнюю неделю. Архивные данные за месяц целиком и за предыдущие месяцы, начиная с января 2011 года, Вы можете получить, выбрав интересующий диапазон дат из раскрывающегося списка и нажав кнопку "Ввод!".


*Определитесь, кто Вы:
робот инопланетянин человек

Внимание! Время в таблицах - всемирное. Для получения местного времени необходимо прибавить поправку, которая равна 1 ч.

Смотрите также архив погоды в соседних городах и на ближайших метеорологических станциях:

Погода в Недре Ватс (Норвегия) (40 км)
Погода в Бляшу (Норвегия) (47 км)
Погода в Хаукелисетере (Норвегия) (51 км)
Погода в Фистере (Норвегия) (56 км)
Погода в Ховдене (Норвегия) (58 км)
Погода в Вагсли (Норвегия) (59 км)
Погода на Лярватне (Норвегия) (68 км)
Погода в Аэропорту Haugesund (Норвегия) (73 км)
Погода в Роваере (Норвегия) (75 км)
Погода в Эустеволле (Норвегия) (76 км)

Пояснения к столбцам:

Ветер - указаны скорость ветра в м/с - средняя за 10 мин, порывы в срок и между сроками (в фигурных скобках) и направление, откуда дует ветер: С - северный, СВ - северо-восточный, В - восточный, ЮВ - юго-восточный, Ю - южный, ЮЗ - юго-западный, З - западный, СЗ - северо-западный.
Видимость - горизонтальная дальность видимости в метрах или километрах. При видимости от 1 до 10 км при отсутствии осадков обычно наблюдается дымка, при ухудшении видимости до 1 км и менее - туман. В сухую погоду видимость может ухудшаться дымом, пылью или мглою.
Явления - указаны атмосферные явления, наблюдавшиеся в срок или в последний час перед сроком; фигурными скобками обозначены явления, наблюдавшиеся между сроками (за 1-3 часа до срока); квадратными скобками обозначены град или гололедные отложения с указанием их диаметра в мм.
Облачность - указаны через наклонную черту общая и нижняя облачность в баллах и высота нижней границы облаков в метрах; квадратными скобками обозначены формы облаков: Ci - перистые, Cs - перисто-слоистые, Cc - перисто-кучевые, Ac - высококучевые, As - высокослоистые, Sc - слоисто-кучевые, Ns - слоисто-дождевые, Cu - кучевые, Cb - кучево-дождевые. Подробнее классификацию облаков см. в Атласе облаков (PDF).
T - Температура воздуха - температура, измеренная на высоте 2 м над землей.
Td - Температура точки росы - температура, при понижении до которой содержащийся в воздухе водяной пар достигнет насыщения.
f - Относительная влажность воздуха - влажноcть воздуха, измеренная на высоте 2 м над землей.
Te - Эффективная температура - температура, которую ощущает одетый по сезону человек в тени. Характеристика душности погоды. При расчете учитывается влияние влажности воздуха и скорости ветра на теплоощущения человека.
Tes - Эффективная температура на солнце - температура, которую ощущает человек, с поправкой на солнечный нагрев. Характеристика знойности погоды. Зависит от высоты солнца над горизонтом, облачности и скорости ветра. Ночью, в пасмурную погоду, а также при ветре 12 м/с и более поправка равна нулю.
P - Атмосферное давление - приведенное к уровню моря атмосферное давление.
Po - Атмосферное давление - измеренное на уровне метеостанции атмосферное давление.
Tmin - Минимальная температура - минимум температуры воздуха на высоте 2 м над землей.
Tmax - Максимальная температура - максимум температуры воздуха на высоте 2 м над землей.
R - Количество осадков - Количество выпавших осадков за период времени, мм. При наведении курсора мыши на число - период времени, за который выпало указанное количество осадков.
R24 - Количество осадков - Количество выпавших осадков за 24 часа, мм.
S - Снежный покров - Высота снежного покрова, см. При наведении курсора мыши на число - состояние снежного покрова и степень покрытия местности в баллах.